Погода в Петропавловской

Россия / Чеченская Республика     43˚22′50″N   45˚49′42″E
темп.,
°C
ветер,
м/с
пор.,
м/с
влажн.,
%
обл.,
%
осадки,
мм/ч
давл.,
гПа
погр.,
м
17 января, вс
вс1700:00+1˚всв3587100 0.0 1015362
03:00+1˚всв3692100 0.1 1013311
06:00+2˚всв4794100 0.5 1010321
09:00+2˚всв5892100 1.0 1008368
12:00+3˚всв5989100 0.3 1006408
15:00+3˚св4890100 0.3 1004361
18:00+3˚всв4893100 0.3 1005344
21:00+3˚всв3690100 0.3 1004356
18 января, пн
пн1800:00+2˚всв3590100 0.0 1004319
03:00+2˚св2490100 0.0 1002249
06:00+1˚сз3490100 0.0 1004271
09:00+1˚зсз5887100 0.1 1008397
12:00+4˚зсз7117898 0.0 1009676
15:00+4˚зсз696796 0.0 10101017
18:00+1˚зсз71160100 0.0 1014776
21:00зсз476799 0.0 1015552
19 января, вт
вт1900:00−2˚сз357474 0.0 1016402
03:00−2˚ссз236987 0.0 1017457
06:00−2˚сз3571100 0.0 1019695
09:00−2˚зсз346697 0.0 1020652
12:00−1˚ссз2254100 0.0 1019814
15:00−1˚юв3457100 0.0 1017716
18:00−2˚юв3680100 0.1 1019419
21:00−2˚в1276100 0.1 102058
20 января, ср
ср2000:00−3˚в359199 0.0 1021264
03:00−3˚вюв249394 0.0 1021205
06:00−4˚всв229422 0.0 102274
09:00−3˚ссз118411 0.0 1023228
12:00−1˚с238997 0.5 1023304
15:00−1˚ссв348199 1.3 1023452
18:00−3˚всв1195100 0.1 102739
21:00−3˚юз129084 0.1 102834
21 января, чт
чт2100:00−3˚зюз128544 0.0 102934
03:00−4˚сз239361 0.0 1030121
06:00−5˚з358665 0.0 1031166
09:00−3˚зсз356778 0.0 1033725
12:00−1˚зсз345521 0.0 1032901
15:00сз235011 0.0 1032930
18:00−3˚ссв01660 0.0 103524
21:00−3˚юв22680 0.0 103629